| time (UTC) | temp C | wind direction | speed KPH | gust KPH | rain 1hr cm | rain 24hr cm | rain mn cm | humidity % | barometer mb |
| 20260510104518 | 3 | 262 | 0.0 | 0.0 | 0.00 | 0.00 | 0.00 | 99 | 1016.6 |
| 20260510104014 | 3 | 262 | 0.0 | 0.0 | 0.00 | 0.00 | 0.00 | 99 | 1016.3 |
| 20260510103512 | 3 | 262 | 0.0 | 0.0 | 0.00 | 0.00 | 0.00 | 99 | 1016.2 |
| 20260510103008 | 3 | 262 | 0.0 | 0.0 | 0.00 | 0.00 | 0.00 | 99 | 1016.2 |
| 20260510102504 | 3 | 263 | 0.0 | 0.0 | 0.00 | 0.00 | 0.00 | 99 | 1016.2 |
| 20260510102000 | 3 | 263 | 0.0 | 0.0 | 0.00 | 0.00 | 0.00 | 99 | 1016.0 |
| 20260510101458 | 3 | 263 | 0.0 | 0.0 | 0.00 | 0.00 | 0.00 | 99 | 1015.8 |
| 20260510100956 | 3 | 263 | 0.0 | 0.0 | 0.00 | 0.00 | 0.00 | 99 | 1015.8 |
| 20260510100452 | 4 | 262 | 0.0 | 0.0 | 0.00 | 0.00 | 0.00 | 99 | 1015.9 |
| 20260510095948 | 4 | 262 | 0.0 | 0.0 | 0.00 | 0.00 | 0.00 | 99 | 1015.7 |
| 20260510095444 | 4 | 262 | 0.0 | 0.0 | 0.00 | 0.00 | 0.00 | 99 | 1015.8 |
| 20260510094943 | 5 | 278 | 0.0 | 1.6 | 0.00 | 0.00 | 0.00 | 99 | 1015.6 |
| 20260510094438 | 4 | 286 | 1.6 | 1.6 | 0.00 | 0.00 | 0.00 | 99 | 1015.6 |
| 20260510093934 | 3 | 327 | 0.0 | 0.0 | 0.00 | 0.00 | 0.00 | 99 | 1015.7 |
| 20260510093430 | 3 | 327 | 0.0 | 1.6 | 0.00 | 0.00 | 0.00 | 99 | 1015.5 |
| 20260510092927 | 4 | 328 | 1.6 | 1.6 | 0.00 | 0.00 | 0.00 | 99 | 1015.5 |
| 20260510092425 | 4 | 324 | 0.0 | 0.0 | 0.00 | 0.00 | 0.00 | 99 | 1015.5 |
| 20260510091924 | 3 | 324 | 0.0 | 0.0 | 0.00 | 0.00 | 0.00 | 99 | 1015.4 |
| 20260510091421 | 4 | 324 | 0.0 | 1.6 | 0.00 | 0.00 | 0.00 | 99 | 1015.3 |
| 20260510090918 | 4 | 324 | 1.6 | 1.6 | 0.00 | 0.00 | 0.00 | 99 | 1015.3 |
| 20260510090414 | 4 | 296 | 0.0 | 0.0 | 0.00 | 0.00 | 0.00 | 99 | 1015.3 |
| 20260510085911 | 5 | 296 | 0.0 | 0.0 | 0.00 | 0.00 | 0.00 | 99 | 1015.5 |
| 20260510085406 | 5 | 296 | 0.0 | 1.6 | 0.00 | 0.00 | 0.00 | 99 | 1015.4 |
| 20260510084901 | 4 | 296 | 0.0 | 0.0 | 0.00 | 0.00 | 0.00 | 99 | 1015.5 |
| 20260510084359 | 4 | 296 | 0.0 | 0.0 | 0.00 | 0.00 | 0.00 | 99 | 1015.1 |
| 20260510083855 | 4 | 296 | 0.0 | 0.0 | 0.00 | 0.00 | 0.00 | 99 | 1015.3 |
| 20260510083352 | 4 | 296 | 0.0 | 0.0 | 0.00 | 0.00 | 0.00 | 99 | 1015.1 |
| 20260510082847 | 4 | 296 | 0.0 | 0.0 | 0.00 | 0.00 | 0.00 | 99 | 1015.1 |
| 20260510082345 | 5 | 296 | 0.0 | 0.0 | 0.00 | 0.00 | 0.00 | 99 | 1015.0 |
| 20260510081844 | 5 | 296 | 0.0 | 0.0 | 0.00 | 0.00 | 0.00 | 99 | 1015.1 |
| 20260510081340 | 5 | 297 | 0.0 | 0.0 | 0.00 | 0.00 | 0.00 | 99 | 1015.1 |
| 20260510080837 | 4 | 297 | 0.0 | 0.0 | 0.00 | 0.00 | 0.00 | 99 | 1015.2 |
| 20260510080330 | 5 | 297 | 0.0 | 0.0 | 0.00 | 0.00 | 0.00 | 99 | 1015.2 |
| 20260510075828 | 4 | 297 | 0.0 | 0.0 | 0.00 | 0.00 | 0.00 | 99 | 1015.0 |
| 20260510075325 | 5 | 297 | 0.0 | 0.0 | 0.00 | 0.00 | 0.00 | 99 | 1015.0 |
| 20260510074822 | 4 | 297 | 0.0 | 0.0 | 0.00 | 0.00 | 0.00 | 99 | 1014.9 |
| 20260510074319 | 4 | 297 | 0.0 | 0.0 | 0.00 | 0.00 | 0.00 | 99 | 1015.0 |
| 20260510073815 | 4 | 297 | 0.0 | 0.0 | 0.00 | 0.00 | 0.00 | 99 | 1015.0 |
| 20260510073311 | 5 | 296 | 0.0 | 0.0 | 0.00 | 0.00 | 0.00 | 99 | 1015.0 |
| 20260510072807 | 5 | 295 | 0.0 | 0.0 | 0.00 | 0.00 | 0.00 | 99 | 1014.7 |
| 20260510072306 | 5 | 296 | 0.0 | 0.0 | 0.00 | 0.00 | 0.00 | 99 | 1014.9 |
| 20260510071800 | 5 | 296 | 0.0 | 0.0 | 0.00 | 0.00 | 0.00 | 99 | 1014.9 |
| 20260510071257 | 6 | 296 | 0.0 | 1.6 | 0.00 | 0.00 | 0.00 | 99 | 1014.9 |
| 20260510070756 | 5 | 296 | 0.0 | 0.0 | 0.00 | 0.00 | 0.00 | 99 | 1014.6 |
| 20260510070252 | 5 | 318 | 0.0 | 0.0 | 0.00 | 0.00 | 0.00 | 99 | 1014.7 |
| 20260510065752 | 5 | 318 | 0.0 | 0.0 | 0.00 | 0.00 | 0.00 | 99 | 1014.5 |
| 20260510065249 | 5 | 319 | 0.0 | 1.6 | 0.00 | 0.00 | 0.00 | 99 | 1014.6 |
| 20260510064745 | 5 | 314 | 0.0 | 1.6 | 0.00 | 0.00 | 0.00 | 99 | 1014.9 |
| 20260510064244 | 5 | 260 | 0.0 | 1.6 | 0.00 | 0.00 | 0.00 | 99 | 1014.6 |
| 20260510063739 | 5 | 290 | 0.0 | 1.6 | 0.00 | 0.00 | 0.00 | 99 | 1014.6 |
| 20260510063236 | 5 | 338 | 1.6 | 1.6 | 0.00 | 0.00 | 0.00 | 99 | 1014.5 |
| 20260510062733 | 5 | 299 | 0.0 | 1.6 | 0.00 | 0.00 | 0.00 | 99 | 1014.5 |
| 20260510062229 | 6 | 274 | 0.0 | 0.0 | 0.00 | 0.00 | 0.00 | 99 | 1014.6 |
| 20260510061724 | 6 | 274 | 0.0 | 0.0 | 0.00 | 0.00 | 0.00 | 99 | 1014.3 |
| 20260510061222 | 5 | 274 | 0.0 | 0.0 | 0.00 | 0.00 | 0.00 | 99 | 1014.9 |
| 20260510060718 | 5 | 263 | 1.6 | 1.6 | 0.00 | 0.00 | 0.00 | 99 | 1014.6 |
| 20260510060214 | 5 | 322 | 0.0 | 0.0 | 0.00 | 0.00 | 0.00 | 99 | 1014.6 |
| 20260510055711 | 5 | 328 | 3.2 | 3.2 | 0.00 | 0.00 | 0.00 | 99 | 1014.6 |
| 20260510055209 | 5 | 353 | 0.0 | 1.6 | 0.00 | 0.00 | 0.00 | 98 | 1014.5 |
| 20260510054704 | 6 | 258 | 0.0 | 0.0 | 0.00 | 0.00 | 0.00 | 98 | 1014.4 |
| 20260510054200 | 6 | 258 | 0.0 | 0.0 | 0.00 | 0.00 | 0.00 | 98 | 1014.4 |
| 20260510053700 | 6 | 306 | 0.0 | 0.0 | 0.00 | 0.00 | 0.00 | 97 | 1014.7 |
| 20260510053156 | 6 | 307 | 1.6 | 3.2 | 0.00 | 0.00 | 0.00 | 98 | 1014.6 |
| 20260510052652 | 7 | 247 | 0.0 | 3.2 | 0.00 | 0.00 | 0.00 | 98 | 1014.5 |
| 20260510052148 | 6 | 258 | 0.0 | 0.0 | 0.00 | 0.00 | 0.00 | 98 | 1014.6 |
| 20260510051644 | 6 | 259 | 0.0 | 1.6 | 0.00 | 0.00 | 0.00 | 98 | 1014.6 |
| 20260510051141 | 6 | 257 | 0.0 | 0.0 | 0.00 | 0.00 | 0.00 | 97 | 1014.9 |
| 20260510050638 | 6 | 258 | 0.0 | 3.2 | 0.00 | 0.00 | 0.00 | 97 | 1014.7 |
| 20260510050136 | 7 | 303 | 0.0 | 1.6 | 0.00 | 0.00 | 0.00 | 97 | 1014.9 |
| 20260510045632 | 6 | 301 | 3.2 | 3.2 | 0.00 | 0.00 | 0.00 | 97 | 1014.9 |
| 20260510045129 | 6 | 256 | 0.0 | 0.0 | 0.00 | 0.00 | 0.00 | 97 | 1015.0 |
| 20260510044625 | 6 | 256 | 0.0 | 0.0 | 0.00 | 0.00 | 0.00 | 96 | 1014.7 |
| 20260510044122 | 6 | 256 | 1.6 | 1.6 | 0.00 | 0.00 | 0.00 | 95 | 1014.7 |
| 20260510043618 | 6 | 256 | 0.0 | 0.0 | 0.00 | 0.00 | 0.00 | 93 | 1015.0 |
| 20260510043114 | 7 | 255 | 0.0 | 0.0 | 0.00 | 0.00 | 0.00 | 91 | 1015.0 |
| 20260510042613 | 8 | 255 | 1.6 | 3.2 | 0.00 | 0.00 | 0.00 | 92 | 1014.9 |
| 20260510042108 | 7 | 259 | 1.6 | 1.6 | 0.00 | 0.00 | 0.00 | 93 | 1015.0 |
| 20260510041605 | 7 | 280 | 0.0 | 1.6 | 0.00 | 0.00 | 0.00 | 93 | 1014.9 |
| 20260510041103 | 7 | 306 | 0.0 | 1.6 | 0.00 | 0.00 | 0.00 | 93 | 1015.0 |
| 20260510040559 | 7 | 306 | 1.6 | 3.2 | 0.00 | 0.00 | 0.00 | 94 | 1014.9 |
| 20260510040055 | 7 | 277 | 0.0 | 0.0 | 0.00 | 0.00 | 0.00 | 94 | 1015.1 |
| 20260510035552 | 7 | 277 | 0.0 | 0.0 | 0.00 | 0.00 | 0.00 | 94 | 1015.0 |
| 20260510035051 | 7 | 277 | 0.0 | 0.0 | 0.00 | 0.00 | 0.00 | 93 | 1014.9 |
| 20260510034550 | 7 | 277 | 0.0 | 0.0 | 0.00 | 0.00 | 0.00 | 92 | 1014.6 |
| 20260510034047 | 8 | 277 | 0.0 | 0.0 | 0.00 | 0.00 | 0.00 | 92 | 1014.9 |
| 20260510033542 | 8 | 277 | 0.0 | 0.0 | 0.00 | 0.00 | 0.00 | 91 | 1014.9 |
| 20260510033041 | 8 | 277 | 0.0 | 0.0 | 0.00 | 0.00 | 0.00 | 91 | 1014.6 |
| 20260510032537 | 8 | 277 | 0.0 | 0.0 | 0.00 | 0.00 | 0.00 | 90 | 1014.7 |
| 20260510032032 | 8 | 277 | 0.0 | 0.0 | 0.00 | 0.00 | 0.00 | 89 | 1014.7 |
| 20260510031527 | 8 | 277 | 0.0 | 0.0 | 0.00 | 0.00 | 0.00 | 88 | 1014.6 |
| 20260510031023 | 9 | 277 | 0.0 | 0.0 | 0.00 | 0.00 | 0.00 | 87 | 1014.6 |
| 20260510030519 | 8 | 277 | 0.0 | 0.0 | 0.00 | 0.00 | 0.00 | 88 | 1014.5 |
| 20260510030017 | 8 | 277 | 0.0 | 0.0 | 0.00 | 0.00 | 0.00 | 87 | 1014.5 |
| 20260510025513 | 9 | 277 | 0.0 | 0.0 | 0.00 | 0.00 | 0.00 | 85 | 1014.4 |
| 20260510025011 | 10 | 277 | 0.0 | 0.0 | 0.00 | 0.00 | 0.00 | 84 | 1014.5 |
| 20260510024508 | 10 | 276 | 1.6 | 1.6 | 0.00 | 0.00 | 0.00 | 83 | 1014.5 |
| 20260510024004 | 10 | 277 | 1.6 | 1.6 | 0.00 | 0.00 | 0.00 | 83 | 1014.4 |
| 20260510023500 | 10 | 277 | 0.0 | 1.6 | 0.00 | 0.00 | 0.00 | 81 | 1014.3 |
| 20260510022957 | 10 | 277 | 1.6 | 1.6 | 0.00 | 0.00 | 0.00 | 83 | 1014.4 |
| 20260510022456 | 10 | 278 | 0.0 | 0.0 | 0.00 | 0.00 | 0.00 | 83 | 1014.2 |
| 20260510021955 | 10 | 278 | 0.0 | 0.0 | 0.00 | 0.00 | 0.00 | 82 | 1013.9 |
| 20260510021453 | 11 | 277 | 0.0 | 0.0 | 0.00 | 0.00 | 0.00 | 79 | 1014.0 |
| 20260510020950 | 11 | 278 | 0.0 | 1.6 | 0.00 | 0.00 | 0.00 | 76 | 1013.9 |
| 20260510020444 | 12 | 275 | 3.2 | 4.8 | 0.00 | 0.00 | 0.00 | 72 | 1013.8 |
| 20260510015940 | 12 | 265 | 3.2 | 4.8 | 0.00 | 0.00 | 0.00 | 70 | 1013.9 |
| 20260510015436 | 12 | 274 | 3.2 | 4.8 | 0.00 | 0.00 | 0.00 | 69 | 1013.7 |
| 20260510014931 | 12 | 274 | 6.4 | 6.4 | 0.00 | 0.00 | 0.00 | 70 | 1013.6 |
| 20260510014429 | 12 | 275 | 4.8 | 6.4 | 0.00 | 0.00 | 0.00 | 69 | 1013.6 |
| 20260510013926 | 13 | 272 | 4.8 | 4.8 | 0.00 | 0.00 | 0.00 | 68 | 1013.4 |
| 20260510013420 | 13 | 269 | 4.8 | 4.8 | 0.00 | 0.00 | 0.00 | 67 | 1013.1 |
| 20260510012916 | 13 | 274 | 4.8 | 4.8 | 0.00 | 0.00 | 0.00 | 67 | 1013.0 |
| 20260510012411 | 12 | 270 | 4.8 | 6.4 | 0.00 | 0.00 | 0.00 | 69 | 1013.2 |
| 20260510011906 | 13 | 272 | 4.8 | 6.4 | 0.00 | 0.00 | 0.00 | 66 | 1012.9 |
| 20260510011401 | 12 | 264 | 4.8 | 6.4 | 0.00 | 0.00 | 0.00 | 69 | 1013.0 |
| 20260510010858 | 13 | 260 | 6.4 | 6.4 | 0.00 | 0.00 | 0.00 | 70 | 1013.0 |
| 20260510010355 | 13 | 275 | 3.2 | 4.8 | 0.00 | 0.00 | 0.00 | 66 | 1012.9 |
| 20260510005852 | 12 | 261 | 3.2 | 4.8 | 0.00 | 0.00 | 0.00 | 68 | 1012.9 |
| 20260510005348 | 13 | 268 | 4.8 | 4.8 | 0.00 | 0.00 | 0.00 | 69 | 1012.7 |
| 20260510004846 | 13 | 258 | 4.8 | 4.8 | 0.00 | 0.00 | 0.00 | 66 | 1012.5 |
| 20260510004343 | 13 | 271 | 3.2 | 4.8 | 0.00 | 0.00 | 0.00 | 66 | 1012.9 |
| 20260510003841 | 13 | 276 | 3.2 | 4.8 | 0.00 | 0.00 | 0.00 | 64 | 1012.7 |
| 20260510003338 | 14 | 269 | 1.6 | 4.8 | 0.00 | 0.00 | 0.00 | 64 | 1012.5 |
| 20260510002836 | 13 | 282 | 3.2 | 4.8 | 0.00 | 0.00 | 0.00 | 65 | 1012.7 |
| 20260510002333 | 13 | 255 | 3.2 | 9.7 | 0.00 | 0.00 | 0.00 | 65 | 1012.6 |
| 20260510001830 | 14 | 268 | 4.8 | 4.8 | 0.00 | 0.00 | 0.00 | 66 | 1012.3 |
| 20260510001328 | 14 | 263 | 3.2 | 4.8 | 0.00 | 0.00 | 0.00 | 62 | 1012.3 |
| 20260510000824 | 15 | 259 | 4.8 | 4.8 | 0.00 | 0.00 | 0.00 | 62 | 1012.2 |
| 20260510000322 | 15 | 279 | 3.2 | 4.8 | 0.00 | 0.00 | 0.00 | 61 | 1012.2 |
| 20260509235818 | 15 | 273 | 3.2 | 3.2 | 0.00 | 0.00 | 0.00 | 60 | 1012.1 |
| 20260509235315 | 15 | 265 | 6.4 | 6.4 | 0.00 | 0.00 | 0.00 | 58 | 1012.1 |
| 20260509234811 | 15 | 253 | 1.6 | 3.2 | 0.00 | 0.00 | 0.00 | 62 | 1011.9 |
| 20260509234307 | 16 | 277 | 3.2 | 4.8 | 0.00 | 0.00 | 0.00 | 57 | 1011.8 |
| 20260509233806 | 16 | 249 | 3.2 | 9.7 | 0.00 | 0.00 | 0.00 | 54 | 1011.9 |
| 20260509233303 | 16 | 279 | 3.2 | 4.8 | 0.00 | 0.00 | 0.00 | 53 | 1011.8 |
| 20260509232759 | 16 | 268 | 1.6 | 3.2 | 0.00 | 0.00 | 0.00 | 53 | 1011.8 |
| 20260509232257 | 16 | 278 | 3.2 | 3.2 | 0.00 | 0.00 | 0.00 | 54 | 1011.6 |
| 20260509231753 | 17 | 303 | 1.6 | 3.2 | 0.00 | 0.00 | 0.00 | 59 | 1011.9 |
| 20260509231250 | 17 | 237 | 1.6 | 6.4 | 0.00 | 0.00 | 0.00 | 59 | 1011.5 |
| 20260509230747 | 19 | 250 | 1.6 | 3.2 | 0.00 | 0.00 | 0.00 | 44 | 1011.9 |
| 20260509230244 | 18 | 229 | 1.6 | 3.2 | 0.00 | 0.00 | 0.00 | 46 | 1011.9 |
| 20260509225739 | 18 | 246 | 3.2 | 6.4 | 0.00 | 0.00 | 0.00 | 50 | 1012.0 |
| 20260509225236 | 18 | 305 | 0.0 | 1.6 | 0.00 | 0.00 | 0.00 | 46 | 1011.9 |
| 20260509224731 | 18 | 313 | 0.0 | 1.6 | 0.00 | 0.00 | 0.00 | 56 | 1012.0 |
| 20260509224229 | 18 | 356 | 3.2 | 4.8 | 0.00 | 0.00 | 0.00 | 50 | 1012.0 |
| 20260509223725 | 18 | 301 | 6.4 | 6.4 | 0.00 | 0.00 | 0.00 | 47 | 1012.1 |
| 20260509223222 | 18 | 53 | 4.8 | 9.7 | 0.00 | 0.00 | 0.00 | 46 | 1012.0 |
| 20260509222719 | 18 | 273 | 1.6 | 9.7 | 0.00 | 0.00 | 0.00 | 51 | 1012.1 |
| 20260509222214 | 18 | 308 | 0.0 | 1.6 | 0.00 | 0.00 | 0.00 | 51 | 1012.0 |
| 20260509221711 | 18 | 278 | 0.0 | 1.6 | 0.00 | 0.00 | 0.00 | 50 | 1012.1 |
| 20260509221207 | 18 | 306 | 3.2 | 3.2 | 0.00 | 0.00 | 0.00 | 49 | 1011.9 |
| 20260509220703 | 18 | 210 | 1.6 | 4.8 | 0.00 | 0.00 | 0.00 | 45 | 1012.0 |
| 20260509220159 | 18 | 257 | 8.0 | 11.3 | 0.00 | 0.00 | 0.00 | 44 | 1011.6 |
| 20260509215655 | 18 | 300 | 1.6 | 9.7 | 0.00 | 0.00 | 0.00 | 51 | 1011.9 |
| 20260509215152 | 18 | 247 | 4.8 | 9.7 | 0.00 | 0.00 | 0.00 | 43 | 1011.8 |
| 20260509214649 | 18 | 339 | 8.0 | 14.5 | 0.00 | 0.00 | 0.00 | 47 | 1011.9 |
| 20260509214146 | 18 | 1 | 4.8 | 4.8 | 0.00 | 0.00 | 0.00 | 43 | 1012.0 |
| 20260509213643 | 18 | 279 | 3.2 | 3.2 | 0.00 | 0.00 | 0.00 | 46 | 1011.8 |
| 20260509213138 | 18 | 23 | 1.6 | 4.8 | 0.00 | 0.00 | 0.00 | 40 | 1011.6 |
| 20260509212636 | 18 | 295 | 3.2 | 4.8 | 0.00 | 0.00 | 0.00 | 42 | 1011.6 |
| 20260509212133 | 19 | 258 | 6.4 | 11.3 | 0.00 | 0.00 | 0.00 | 41 | 1011.9 |
| 20260509211629 | 20 | 250 | 4.8 | 9.7 | 0.00 | 0.00 | 0.00 | 41 | 1011.5 |
| 20260509211126 | 20 | 309 | 3.2 | 6.4 | 0.00 | 0.00 | 0.00 | 42 | 1011.6 |
| 20260509210622 | 19 | 28 | 4.8 | 4.8 | 0.00 | 0.00 | 0.00 | 42 | 1011.5 |
| 20260509210120 | 18 | 306 | 4.8 | 12.9 | 0.00 | 0.00 | 0.00 | 46 | 1011.4 |
| 20260509205614 | 18 | 317 | 8.0 | 16.1 | 0.00 | 0.00 | 0.00 | 43 | 1011.4 |
| 20260509205109 | 18 | 228 | 0.0 | 4.8 | 0.00 | 0.00 | 0.00 | 42 | 1011.1 |
| 20260509204605 | 19 | 130 | 6.4 | 9.7 | 0.00 | 0.00 | 0.00 | 42 | 1011.2 |
| 20260509204102 | 19 | 24 | 4.8 | 6.4 | 0.00 | 0.00 | 0.00 | 48 | 1011.1 |
| 20260509203558 | 19 | 226 | 1.6 | 4.8 | 0.00 | 0.00 | 0.00 | 39 | 1010.9 |
| 20260509203056 | 19 | 34 | 9.7 | 11.3 | 0.00 | 0.00 | 0.00 | 42 | 1011.2 |
| 20260509202550 | 20 | 257 | 0.0 | 11.3 | 0.00 | 0.00 | 0.00 | 44 | 1011.1 |
| 20260509202046 | 20 | 283 | 3.2 | 14.5 | 0.00 | 0.00 | 0.00 | 40 | 1011.0 |
| 20260509201541 | 21 | 215 | 3.2 | 12.9 | 0.00 | 0.00 | 0.00 | 44 | 1010.8 |
| 20260509201040 | 19 | 121 | 3.2 | 4.8 | 0.00 | 0.00 | 0.00 | 52 | 1010.9 |
| 20260509200538 | 18 | 268 | 3.2 | 6.4 | 0.00 | 0.00 | 0.00 | 45 | 1010.9 |
| 20260509200036 | 18 | 159 | 6.4 | 9.7 | 0.00 | 0.00 | 0.00 | 46 | 1010.9 |
| 20260509195532 | 18 | 283 | 3.2 | 6.4 | 0.00 | 0.00 | 0.00 | 51 | 1010.9 |
| 20260509195031 | 19 | 193 | 9.7 | 14.5 | 0.00 | 0.00 | 0.00 | 46 | 1010.9 |
| 20260509194526 | 19 | 188 | 4.8 | 6.4 | 0.00 | 0.00 | 0.00 | 49 | 1010.8 |
| 20260509194024 | 19 | 251 | 3.2 | 6.4 | 0.00 | 0.00 | 0.00 | 49 | 1010.9 |
| 20260509193524 | 19 | 6 | 0.0 | 6.4 | 0.00 | 0.00 | 0.00 | 47 | 1010.9 |
| 20260509193022 | 19 | 313 | 1.6 | 4.8 | 0.00 | 0.00 | 0.00 | 48 | 1010.9 |
| 20260509192517 | 19 | 277 | 4.8 | 9.7 | 0.00 | 0.00 | 0.00 | 53 | 1011.0 |
| 20260509192013 | 18 | 324 | 6.4 | 11.3 | 0.00 | 0.00 | 0.00 | 50 | 1011.0 |
| 20260509191507 | 18 | 324 | 3.2 | 9.7 | 0.00 | 0.00 | 0.00 | 50 | 1011.0 |
| 20260509191003 | 18 | 235 | 6.4 | 9.7 | 0.00 | 0.00 | 0.00 | 54 | 1010.7 |
| 20260509190500 | 18 | 358 | 6.4 | 11.3 | 0.00 | 0.00 | 0.00 | 50 | 1011.0 |
| 20260509185958 | 18 | 224 | 9.7 | 11.3 | 0.00 | 0.00 | 0.00 | 48 | 1011.2 |
| 20260509185455 | 19 | 146 | 6.4 | 9.7 | 0.00 | 0.00 | 0.00 | 49 | 1011.4 |
| 20260509184952 | 18 | 313 | 3.2 | 6.4 | 0.00 | 0.00 | 0.00 | 47 | 1011.2 |
| 20260509184451 | 18 | 268 | 1.6 | 6.4 | 0.00 | 0.00 | 0.00 | 47 | 1011.1 |
| 20260509183947 | 18 | 162 | 1.6 | 4.8 | 0.00 | 0.00 | 0.00 | 49 | 1011.2 |
| 20260509183446 | 18 | 241 | 4.8 | 4.8 | 0.00 | 0.00 | 0.00 | 48 | 1011.2 |
| 20260509182943 | 18 | 269 | 6.4 | 17.7 | 0.00 | 0.00 | 0.00 | 52 | 1011.1 |
| 20260509182440 | 18 | 123 | 4.8 | 9.7 | 0.00 | 0.00 | 0.00 | 48 | 1011.3 |
| 20260509181937 | 18 | 150 | 6.4 | 12.9 | 0.00 | 0.00 | 0.00 | 48 | 1011.4 |
| 20260509181435 | 18 | 214 | 4.8 | 4.8 | 0.00 | 0.00 | 0.00 | 49 | 1011.3 |
| 20260509180932 | 18 | 176 | 3.2 | 11.3 | 0.00 | 0.00 | 0.00 | 50 | 1011.4 |
| 20260509180427 | 19 | 273 | 6.4 | 6.4 | 0.00 | 0.00 | 0.00 | 52 | 1011.3 |
| 20260509175925 | 17 | 283 | 4.8 | 11.3 | 0.00 | 0.00 | 0.00 | 51 | 1011.5 |
| 20260509175421 | 19 | 299 | 4.8 | 9.7 | 0.00 | 0.00 | 0.00 | 55 | 1011.4 |
| 20260509174917 | 18 | 232 | 1.6 | 6.4 | 0.00 | 0.00 | 0.00 | 52 | 1011.4 |
| 20260509174413 | 18 | 195 | 1.6 | 9.7 | 0.00 | 0.00 | 0.00 | 51 | 1011.6 |
| 20260509173909 | 18 | 185 | 3.2 | 14.5 | 0.00 | 0.00 | 0.00 | 50 | 1011.8 |
| 20260509173403 | 18 | 166 | 6.4 | 9.7 | 0.00 | 0.00 | 0.00 | 51 | 1011.4 |
| 20260509172900 | 18 | 146 | 1.6 | 6.4 | 0.00 | 0.00 | 0.00 | 52 | 1011.5 |
| 20260509172357 | 19 | 275 | 9.7 | 11.3 | 0.00 | 0.00 | 0.00 | 48 | 1011.5 |
| 20260509171853 | 18 | 149 | 3.2 | 6.4 | 0.00 | 0.00 | 0.00 | 51 | 1011.6 |
| 20260509171349 | 17 | 301 | 4.8 | 11.3 | 0.00 | 0.00 | 0.00 | 57 | 1011.8 |
| 20260509170846 | 17 | 238 | 3.2 | 20.9 | 0.00 | 0.00 | 0.00 | 57 | 1012.1 |
| 20260509170341 | 17 | 158 | 6.4 | 9.7 | 0.00 | 0.00 | 0.00 | 52 | 1011.9 |
| 20260509165836 | 17 | 248 | 1.6 | 12.9 | 0.00 | 0.00 | 0.00 | 51 | 1012.2 |
| 20260509165330 | 17 | 215 | 3.2 | 4.8 | 0.00 | 0.00 | 0.00 | 55 | 1012.1 |
| 20260509164827 | 17 | 179 | 6.4 | 9.7 | 0.00 | 0.00 | 0.00 | 52 | 1012.3 |
| 20260509164323 | 17 | 246 | 1.6 | 4.8 | 0.00 | 0.00 | 0.00 | 52 | 1012.2 |
| 20260509163819 | 17 | 157 | 1.6 | 6.4 | 0.00 | 0.00 | 0.00 | 54 | 1012.5 |
| 20260509163316 | 16 | 340 | 0.0 | 3.2 | 0.00 | 0.00 | 0.00 | 56 | 1012.3 |
| 20260509162816 | 17 | 279 | 6.4 | 12.9 | 0.00 | 0.00 | 0.00 | 55 | 1012.1 |
| 20260509162314 | 17 | 261 | 1.6 | 6.4 | 0.00 | 0.00 | 0.00 | 61 | 1011.9 |
| 20260509161811 | 16 | 132 | 9.7 | 11.3 | 0.00 | 0.00 | 0.00 | 59 | 1012.0 |
| 20260509161307 | 16 | 162 | 6.4 | 9.7 | 0.00 | 0.00 | 0.00 | 60 | 1012.0 |
| 20260509160802 | 16 | 186 | 8.0 | 12.9 | 0.00 | 0.00 | 0.00 | 60 | 1011.9 |
| 20260509160259 | 16 | 200 | 3.2 | 6.4 | 0.00 | 0.00 | 0.00 | 60 | 1011.8 |
| 20260509155754 | 16 | 210 | 4.8 | 12.9 | 0.00 | 0.00 | 0.00 | 61 | 1011.9 |
| 20260509155251 | 16 | 279 | 0.0 | 3.2 | 0.00 | 0.00 | 0.00 | 61 | 1011.8 |
| 20260509154747 | 16 | 158 | 3.2 | 11.3 | 0.00 | 0.00 | 0.00 | 62 | 1011.9 |
| 20260509154244 | 16 | 180 | 3.2 | 11.3 | 0.00 | 0.00 | 0.00 | 62 | 1012.1 |
| 20260509153741 | 16 | 191 | 6.4 | 11.3 | 0.00 | 0.00 | 0.00 | 61 | 1012.1 |
| 20260509153237 | 16 | 178 | 4.8 | 11.3 | 0.00 | 0.00 | 0.00 | 59 | 1012.1 |
| 20260509152734 | 16 | 157 | 4.8 | 12.9 | 0.00 | 0.00 | 0.00 | 63 | 1011.8 |
| 20260509152230 | 16 | 129 | 6.4 | 9.7 | 0.00 | 0.00 | 0.00 | 58 | 1012.2 |
| 20260509151727 | 16 | 166 | 4.8 | 9.7 | 0.00 | 0.00 | 0.00 | 62 | 1012.0 |
| 20260509151224 | 16 | 256 | 3.2 | 4.8 | 0.00 | 0.00 | 0.00 | 61 | 1012.0 |
| 20260509150722 | 17 | 266 | 6.4 | 9.7 | 0.00 | 0.00 | 0.00 | 58 | 1012.0 |
| 20260509150220 | 16 | 172 | 4.8 | 6.4 | 0.00 | 0.00 | 0.00 | 63 | 1012.1 |
| 20260509145716 | 16 | 179 | 9.7 | 12.9 | 0.00 | 0.00 | 0.00 | 61 | 1012.0 |
| 20260509145211 | 16 | 144 | 6.4 | 6.4 | 0.00 | 0.00 | 0.00 | 64 | 1012.0 |
| 20260509144708 | 16 | 327 | 1.6 | 4.8 | 0.00 | 0.00 | 0.00 | 61 | 1012.3 |
| 20260509144205 | 16 | 180 | 4.8 | 4.8 | 0.00 | 0.00 | 0.00 | 65 | 1012.1 |
| 20260509143702 | 16 | 158 | 4.8 | 11.3 | 0.00 | 0.00 | 0.00 | 61 | 1012.1 |
| 20260509143159 | 16 | 158 | 4.8 | 11.3 | 0.00 | 0.00 | 0.00 | 63 | 1012.1 |
| 20260509142655 | 16 | 120 | 4.8 | 11.3 | 0.00 | 0.00 | 0.00 | 65 | 1012.1 |
| 20260509142152 | 15 | 305 | 1.6 | 6.4 | 0.00 | 0.00 | 0.00 | 71 | 1012.0 |
| 20260509141647 | 14 | 140 | 9.7 | 14.5 | 0.00 | 0.00 | 0.00 | 67 | 1012.2 |
| 20260509141144 | 15 | 127 | 6.4 | 9.7 | 0.00 | 0.00 | 0.00 | 66 | 1012.3 |
| 20260509140641 | 15 | 164 | 1.6 | 4.8 | 0.00 | 0.00 | 0.00 | 67 | 1012.2 |
| 20260509140139 | 14 | 229 | 1.6 | 3.2 | 0.00 | 0.00 | 0.00 | 69 | 1012.0 |
| 20260509135636 | 13 | 233 | 4.8 | 11.3 | 0.00 | 0.00 | 0.00 | 67 | 1012.2 |
| 20260509135134 | 12 | 121 | 3.2 | 4.8 | 0.00 | 0.00 | 0.00 | 75 | 1012.2 |
| 20260509134630 | 11 | 303 | 0.0 | 3.2 | 0.00 | 0.00 | 0.00 | 80 | 1012.1 |
| 20260509134128 | 10 | 293 | 0.0 | 1.6 | 0.00 | 0.00 | 0.00 | 81 | 1012.2 |
| 20260509133625 | 10 | 60 | 0.0 | 1.6 | 0.00 | 0.00 | 0.00 | 81 | 1011.8 |
| 20260509133122 | 10 | 39 | 1.6 | 3.2 | 0.00 | 0.00 | 0.00 | 80 | 1012.1 |
| 20260509132620 | 9 | 39 | 1.6 | 1.6 | 0.00 | 0.00 | 0.00 | 81 | 1012.5 |
| 20260509132119 | 10 | 59 | 3.2 | 3.2 | 0.00 | 0.00 | 0.00 | 82 | 1012.5 |
| 20260509131614 | 9 | 27 | 0.0 | 0.0 | 0.00 | 0.00 | 0.00 | 84 | 1012.7 |
| 20260509131112 | 8 | 27 | 1.6 | 1.6 | 0.00 | 0.00 | 0.00 | 84 | 1012.8 |
| 20260509130607 | 8 | 26 | 0.0 | 1.6 | 0.00 | 0.00 | 0.00 | 84 | 1013.1 |
| 20260509130104 | 8 | 22 | 0.0 | 1.6 | 0.00 | 0.00 | 0.00 | 87 | 1013.0 |
| 20260509125600 | 8 | 19 | 0.0 | 0.0 | 0.00 | 0.00 | 0.00 | 88 | 1013.0 |
| 20260509125057 | 7 | 5 | 0.0 | 1.6 | 0.00 | 0.00 | 0.00 | 86 | 1012.8 |
| 20260509124553 | 7 | 348 | 0.0 | 0.0 | 0.00 | 0.00 | 0.00 | 88 | 1013.2 |
| 20260509124051 | 7 | 348 | 0.0 | 1.6 | 0.00 | 0.00 | 0.00 | 88 | 1013.1 |
| 20260509123549 | 6 | 27 | 0.0 | 0.0 | 0.00 | 0.00 | 0.00 | 88 | 1013.2 |
| 20260509123045 | 6 | 28 | 0.0 | 0.0 | 0.00 | 0.00 | 0.00 | 88 | 1013.1 |
| 20260509122541 | 6 | 28 | 1.6 | 1.6 | 0.00 | 0.00 | 0.00 | 91 | 1013.1 |
| 20260509122038 | 6 | 29 | 0.0 | 0.0 | 0.00 | 0.00 | 0.00 | 92 | 1013.4 |
| 20260509121535 | 6 | 29 | 0.0 | 1.6 | 0.00 | 0.00 | 0.00 | 94 | 1013.4 |
| 20260509121032 | 5 | 338 | 0.0 | 0.0 | 0.00 | 0.00 | 0.00 | 94 | 1013.2 |
| 20260509120531 | 5 | 338 | 0.0 | 0.0 | 0.00 | 0.00 | 0.00 | 97 | 1013.4 |
| 20260509120029 | 5 | 338 | 0.0 | 0.0 | 0.00 | 0.00 | 0.00 | 98 | 1013.6 |
| 20260509115525 | 5 | 338 | 0.0 | 0.0 | 0.00 | 0.00 | 0.00 | 99 | 1013.5 |
| 20260509115023 | 5 | 338 | 0.0 | 0.0 | 0.00 | 0.00 | 0.00 | 99 | 1013.5 |
| 20260509114521 | 5 | 338 | 0.0 | 0.0 | 0.00 | 0.00 | 0.00 | 99 | 1013.4 |
| 20260509114020 | 4 | 338 | 0.0 | 0.0 | 0.00 | 0.00 | 0.00 | 99 | 1013.1 |
| 20260509113518 | 4 | 339 | 0.0 | 1.6 | 0.00 | 0.00 | 0.00 | 99 | 1013.1 |
| 20260509113015 | 4 | 338 | 0.0 | 0.0 | 0.00 | 0.00 | 0.00 | 99 | 1013.0 |
| 20260509112511 | 4 | 338 | 0.0 | 0.0 | 0.00 | 0.00 | 0.00 | 99 | 1013.1 |
| 20260509112008 | 3 | 338 | 0.0 | 0.0 | 0.00 | 0.00 | 0.00 | 99 | 1013.1 |
| 20260509111505 | 3 | 338 | 0.0 | 0.0 | 0.00 | 0.00 | 0.00 | 99 | 1013.1 |
| 20260509111003 | 3 | 338 | 0.0 | 0.0 | 0.00 | 0.00 | 0.00 | 99 | 1013.1 |
| 20260509110459 | 3 | 338 | 0.0 | 0.0 | 0.00 | 0.00 | 0.00 | 99 | 1012.9 |
| 20260509105956 | 3 | 338 | 0.0 | 0.0 | 0.00 | 0.00 | 0.00 | 99 | 1013.0 |
| 20260509105455 | 3 | 338 | 0.0 | 0.0 | 0.00 | 0.00 | 0.00 | 99 | 1013.0 |
| 20260509104951 | 3 | 337 | 0.0 | 0.0 | 0.00 | 0.00 | 0.00 | 99 | 1013.1 |